[[{"header":{"parameterUnit":"m.s-1","parameterCategory":1,"la1":30.2991,"la2":30.254,"lo1":-89.0895,"lo2":-89.0444,"dy":0.0017,"dx":0.0017,"nx":28,"ny":28,"refTime":"2025-04-14T21:00:00:Z","depth":0,"parameterNumber":2,"parameterNumberName":"U-component_of_WINDS"},"data":[0,0,0,0,0,0,0,0,0,0,0,0,0,0,0,0,0,0,0,0,0,0,0,0,0,0,0,0,0,0,0,0,0,0,0,0,0,0,0,0,0,0,0,0,0,0,0,0,0,0,0,0,0,0,0,0,0,0,2.5572,2.5573,0,2.5628,2.5629,2.5629,2.5628,2.5628,2.5627,2.5626,2.5683,2.5685,2.5687,0,0,0,0,0,0,0,0,0,0,0,0,0,2.5463,2.5465,2.5572,2.5573,2.5574,2.5628,2.5629,2.563,2.5628,2.5628,2.5627,2.5626,2.5682,2.5685,2.5688,0,0,0,0,0,0,0,0,0,0,0,0,0,2.5514,2.5466,2.5572,2.558,2.5581,2.5628,2.5629,2.563,2.5629,2.5628,2.5626,2.5625,2.5682,2.5685,2.5688,2.5731,0,0,2.5698,2.57,0,0,0,0,0,0,0,0,2.5511,2.5518,2.5578,2.5579,2.5581,2.562,2.5611,2.5664,2.5629,2.561,2.5626,2.5625,2.5663,2.5668,2.5681,2.5734,2.5736,2.5699,2.5701,2.5702,2.5703,0,0,0,0,0,0,0,2.5508,2.5516,2.5594,2.5579,2.558,2.558,2.5586,2.5621,2.5642,2.5612,2.5612,2.5619,2.5664,2.5678,2.5682,2.5737,2.5698,2.5701,2.5703,2.5705,2.5828,2.5829,0,0,0,0,0,0,2.5503,2.5513,2.5593,2.5596,2.5542,2.5583,2.5589,2.5609,2.5642,2.5646,2.562,2.5618,2.5672,2.5678,2.5684,2.5736,2.5702,2.5705,2.5707,2.5827,2.5828,2.5829,0,0,0,0,0,0,2.55,2.551,2.559,2.5554,2.5565,2.5586,2.5607,2.561,2.5624,2.5648,2.5651,2.563,2.5672,2.5679,2.5719,2.5738,2.5707,2.571,2.5825,2.5827,2.5829,2.5841,0,0,0,0,0,0,2.5497,2.5509,2.5526,2.5555,2.5567,2.5625,2.5609,2.5612,2.563,2.5629,2.5659,2.5662,2.5671,2.5714,2.5723,2.5742,2.5712,2.5823,2.5826,2.5828,2.5839,2.5843,2.5847,0,0,0,0,0,2.5493,2.5527,2.5527,2.5536,2.5588,2.5626,2.5633,2.5642,2.5632,2.5648,2.5663,2.5661,2.5735,2.5719,2.5728,2.5749,2.5822,2.5825,2.5828,2.5837,2.5842,2.5847,0,0,0,0,0,0,2.55,2.5531,2.5531,2.5575,2.5598,2.5626,2.5647,2.5648,2.5674,2.5672,2.5683,2.5689,2.5729,2.5743,2.5724,2.5792,2.5777,2.5782,2.5781,2.5786,2.579,2.5785,2.5715,0,0,0,0,0,2.5506,2.5535,2.5561,2.5597,2.5609,2.5626,2.5643,2.5648,2.5672,2.5682,2.57,2.5723,2.5751,2.577,2.5797,2.5841,2.5847,2.586,2.5864,2.5867,2.5871,2.5895,2.59,2.5839,2.5839,2.5839,0,0,2.552,2.5541,2.5558,2.5599,2.5617,2.5646,2.5634,2.5665,2.5686,2.5687,2.5725,2.5739,2.5766,2.5808,2.5827,2.5821,2.5889,2.5871,2.5873,2.5875,2.5898,2.5904,2.5909,2.5841,2.584,2.584,0,0,2.556,2.5579,2.5611,2.5629,2.5657,2.5668,2.5676,2.5704,2.5713,2.5752,2.5753,2.5778,2.5827,2.5845,2.5861,2.5908,2.5906,2.5916,2.5936,2.5959,2.5964,2.5968,2.5984,2.5989,2.592,2.592,2.592,0,2.5573,2.5617,2.5627,2.5658,2.5676,2.5678,2.571,2.5727,2.5763,2.5775,2.5767,2.5827,2.5845,2.5891,2.5903,2.5916,2.5924,2.5913,2.5962,2.5967,2.5971,2.5986,2.5992,2.5921,2.5921,2.5921,2.5921,0,2.5632,2.5662,2.5684,2.5718,2.5739,2.577,2.5785,2.5804,2.5808,2.582,2.5859,2.5881,2.5912,2.5924,2.5928,2.5971,2.5965,2.596,2.5945,2.5978,2.5992,2.5998,2.5923,2.5922,2.5922,2.5922,0,0,2.5676,2.5716,2.5724,2.5739,2.577,2.5793,2.5824,2.5855,2.5871,2.5895,2.5921,2.5962,2.5957,2.5975,2.5982,2.6002,2.6036,2.5994,2.5994,2.6,2.6083,2.6087,2.6093,2.6036,2.6037,2.6038,2.6081,0,2.5718,2.5774,2.5785,2.5833,2.5861,2.5863,2.589,2.5912,2.5924,2.5949,2.5962,2.5991,2.5982,2.5993,2.6013,2.6028,2.6053,2.6025,2.606,2.6061,2.6052,2.6101,2.6105,2.6144,2.6086,2.6087,2.6088,0,2.5775,2.5801,2.5852,2.5879,2.589,2.5915,2.5943,2.5968,2.5992,2.5999,2.6019,2.6023,2.6055,2.604,2.6084,2.6065,2.608,2.6089,2.6091,2.6094,2.6076,2.6104,2.6157,2.6162,2.6097,2.6096,2.6096,0,2.5801,2.5849,2.5885,2.5898,2.5931,2.5948,2.5962,2.5985,2.6003,2.6028,2.6039,2.6068,2.6083,2.6105,2.6117,2.6104,2.616,2.6145,2.6166,2.6166,2.6177,2.6176,2.6232,2.6188,2.6188,2.6188,2.6188,0,2.5847,2.5878,2.5897,2.592,2.5955,2.5966,2.6,2.6014,2.6035,2.6059,2.6063,2.6086,2.61,2.6125,2.6135,2.6169,2.6176,2.6183,2.6185,2.6182,2.6181,2.6191,2.6188,2.6189,2.6189,2.6189,2.6189,0,2.5881,2.5896,2.5936,2.5963,2.5971,2.5995,2.6018,2.604,2.6052,2.6083,2.6091,2.611,2.614,2.6154,2.6191,2.6197,2.6236,2.6236,2.6227,2.6228,2.6248,2.6245,2.6311,2.632,2.6271,2.6272,2.6272,0,2.5909,2.5933,2.5963,2.598,2.5994,2.6022,2.604,2.6052,2.607,2.61,2.6118,2.6148,2.6172,2.6219,2.6236,2.6264,2.6265,2.6286,2.6269,2.6265,2.6264,2.6262,2.6264,2.6289,2.6289,2.629,2.629,0,2.5956,2.5962,2.5988,2.6017,2.6038,2.6061,2.6083,2.6097,2.6113,2.6133,2.6164,2.6183,2.622,2.6249,2.6278,2.6293,2.6294,2.6295,2.6301,2.6298,2.6292,2.6295,2.6235,2.6293,2.6293,2.6293,2.6293,2.6292,2.5987,2.6008,2.6033,2.6061,2.608,2.6101,2.6122,2.6137,2.6162,2.6194,2.62,2.6232,2.6255,2.6294,2.6309,2.6334,2.6329,2.6338,2.6341,2.6342,2.6343,2.6289,2.634,2.634,2.634,2.634,2.634,0,2.6034,2.6049,2.6076,2.6107,2.6129,2.6129,2.6154,2.6172,2.6201,2.6223,2.6247,2.6281,2.631,2.6329,2.6357,2.6374,2.6375,2.6381,2.6379,2.6382,2.6346,2.6338,2.6379,2.6379,2.6379,2.6379,2.6379,2.6379,2.606,2.6096,2.6105,2.6149,2.6164,2.6196,2.621,2.6229,2.6247,2.6285,2.6309,2.6321,2.6342,2.6372,2.6398,2.6403,2.6412,2.6418,2.6423,2.6389,2.6385,2.6381,2.6373,2.6421,2.6421,2.6456,2.6457,2.6457]},{"header":{"parameterUnit":"m.s-1","parameterCategory":1,"la1":30.2991,"la2":30.254,"lo1":-89.0895,"lo2":-89.0444,"dy":0.0017,"dx":0.0017,"nx":28,"ny":28,"refTime":"2025-04-14T21:00:00:Z","depth":0,"parameterNumber":3,"parameterNumberName":"V-component_of_WINDS"},"data":[0,0,0,0,0,0,0,0,0,0,0,0,0,0,0,0,0,0,0,0,0,0,0,0,0,0,0,0,0,0,0,0,0,0,0,0,0,0,0,0,0,0,0,0,0,0,0,0,0,0,0,0,0,0,0,0,0,0,4.4092,4.4092,0,4.4107,4.4107,4.4107,4.409,4.409,4.4089,4.4089,4.4102,4.4103,4.4104,0,0,0,0,0,0,0,0,0,0,0,0,0,4.4045,4.4046,4.4091,4.4092,4.4092,4.4107,4.4107,4.4107,4.4091,4.409,4.4089,4.4088,4.4101,4.4102,4.4104,0,0,0,0,0,0,0,0,0,0,0,0,0,4.4063,4.4046,4.4091,4.4085,4.4085,4.4107,4.4107,4.4107,4.4091,4.409,4.4089,4.4088,4.4101,4.4102,4.4104,4.4132,0,0,4.4108,4.4109,0,0,0,0,0,0,0,0,4.4062,4.4065,4.4086,4.4086,4.4085,4.4096,4.4096,4.4115,4.4091,4.4088,4.4089,4.4087,4.41,4.4102,4.4107,4.4132,4.4133,4.4108,4.4109,4.411,4.411,0,0,0,0,0,0,0,4.4061,4.4064,4.4098,4.4086,4.4086,4.4081,4.4083,4.4099,4.4099,4.4089,4.4087,4.409,4.41,4.4105,4.4107,4.4133,4.4108,4.4109,4.411,4.4111,4.4183,4.4184,0,0,0,0,0,0,4.4061,4.4063,4.4097,4.4098,4.4071,4.4083,4.4084,4.4093,4.4099,4.4099,4.409,4.4089,4.4103,4.4105,4.4107,4.4141,4.411,4.4111,4.4112,4.4182,4.4183,4.4184,0,0,0,0,0,0,4.406,4.4064,4.4096,4.408,4.4084,4.4085,4.4095,4.4094,4.41,4.4101,4.41,4.4096,4.4103,4.4105,4.4126,4.4141,4.4112,4.4113,4.418,4.4182,4.4184,4.4207,0,0,0,0,0,0,4.4059,4.4064,4.4075,4.4081,4.4085,4.4116,4.4096,4.4095,4.4102,4.41,4.4106,4.4106,4.4102,4.4124,4.4127,4.4142,4.4114,4.4179,4.4181,4.4183,4.4205,4.421,4.4213,0,0,0,0,0,4.4057,4.408,4.4075,4.408,4.4099,4.4117,4.4119,4.4115,4.4104,4.4115,4.4115,4.4106,4.4139,4.4126,4.413,4.4145,4.4178,4.4181,4.4183,4.4204,4.4209,4.4213,0,0,0,0,0,0,4.4074,4.4081,4.4076,4.4101,4.4109,4.4114,4.4127,4.4121,4.413,4.4128,4.4122,4.4123,4.4145,4.4147,4.4133,4.4173,4.4156,4.416,4.4171,4.4176,4.418,4.4179,4.4115,0,0,0,0,0,4.4081,4.4096,4.41,4.4123,4.4127,4.4127,4.4134,4.4131,4.4137,4.414,4.4142,4.4149,4.416,4.4168,4.4179,4.4206,4.4207,4.4218,4.4222,4.4225,4.4228,4.4243,4.4248,4.4192,4.4192,4.4192,0,0,4.4096,4.4101,4.411,4.4126,4.4132,4.4146,4.4129,4.4145,4.4156,4.4142,4.4162,4.4164,4.4171,4.4195,4.4205,4.4197,4.4244,4.4229,4.4231,4.4232,4.4246,4.4251,4.4256,4.4194,4.4193,4.4193,0,0,4.4129,4.4135,4.4154,4.4161,4.4169,4.4169,4.4174,4.418,4.4181,4.4202,4.4192,4.4204,4.4225,4.423,4.4235,4.4272,4.4264,4.4276,4.4297,4.4311,4.4316,4.432,4.4333,4.4338,4.4279,4.4279,4.4279,0,4.4145,4.4168,4.4165,4.4182,4.419,4.418,4.4199,4.4205,4.4216,4.4221,4.4212,4.4238,4.4242,4.4267,4.4276,4.4281,4.4286,4.4275,4.4315,4.4319,4.4323,4.4336,4.4341,4.428,4.428,4.428,4.428,0,4.4188,4.4204,4.4218,4.4231,4.424,4.4259,4.4258,4.4267,4.4263,4.4264,4.4285,4.4289,4.4301,4.4307,4.4302,4.4332,4.4327,4.4317,4.43,4.433,4.4342,4.4346,4.4282,4.4282,4.4282,4.4281,0,0,4.4232,4.4244,4.4249,4.4256,4.4265,4.4277,4.4295,4.4308,4.4316,4.4324,4.4339,4.4357,4.4348,4.4354,4.4351,4.4363,4.4393,4.4352,4.4352,4.4359,4.4425,4.4433,4.4439,4.4387,4.4388,4.4389,4.4425,0,4.4266,4.4298,4.4296,4.4326,4.4341,4.4332,4.4348,4.4355,4.4356,4.4368,4.4369,4.4382,4.437,4.4373,4.4385,4.4387,4.4406,4.4384,4.44,4.4401,4.4399,4.4445,4.4453,4.4486,4.443,4.443,4.4431,0,4.431,4.4321,4.4353,4.4362,4.4368,4.4382,4.4394,4.4406,4.4414,4.4414,4.4421,4.4416,4.4433,4.4417,4.4441,4.4426,4.4432,4.4434,4.4435,4.4436,4.4418,4.4447,4.4497,4.4502,4.4438,4.4438,4.4437,0,4.4339,4.4362,4.4385,4.439,4.44,4.4411,4.4415,4.4422,4.443,4.4441,4.4446,4.4458,4.4464,4.4473,4.4471,4.4459,4.4495,4.4478,4.4495,4.4496,4.4503,4.4503,4.4555,4.4508,4.4508,4.4507,4.4507,0,4.4377,4.4397,4.4398,4.4412,4.4434,4.4432,4.4453,4.4456,4.4463,4.4477,4.4469,4.4482,4.4478,4.4491,4.4489,4.4509,4.4512,4.4512,4.4512,4.4513,4.4513,4.4517,4.4515,4.4509,4.4509,4.4508,4.4508,0,4.4413,4.4415,4.4439,4.4447,4.445,4.4466,4.4472,4.4485,4.4486,4.4504,4.4508,4.4509,4.4524,4.4522,4.4538,4.4537,4.4562,4.4558,4.456,4.4559,4.4577,4.4575,4.4633,4.4641,4.4588,4.4589,4.4589,0,4.4437,4.4453,4.4463,4.4473,4.4479,4.4493,4.4502,4.4501,4.451,4.4521,4.4532,4.4546,4.4558,4.4581,4.4583,4.4595,4.4592,4.4611,4.4593,4.4595,4.4592,4.4591,4.4593,4.4615,4.4615,4.4616,4.4616,0,4.448,4.4481,4.4494,4.4509,4.452,4.4531,4.4541,4.4549,4.4548,4.4559,4.4574,4.4583,4.46,4.4614,4.4626,4.463,4.4623,4.4622,4.4627,4.4628,4.4629,4.4629,4.457,4.462,4.462,4.462,4.4619,4.4619,4.4511,4.4525,4.4535,4.4551,4.4558,4.4568,4.4581,4.4585,4.4598,4.4613,4.4611,4.4628,4.4636,4.4651,4.4656,4.4669,4.4662,4.4669,4.467,4.4672,4.4674,4.4627,4.4671,4.4671,4.4671,4.4671,4.4671,0,4.4554,4.456,4.4575,4.459,4.4603,4.4597,4.4608,4.4618,4.4634,4.4643,4.4654,4.4672,4.4686,4.469,4.4703,4.4713,4.471,4.4716,4.4715,4.4716,4.468,4.4675,4.4718,4.4718,4.4718,4.4718,4.4718,4.4718,4.4578,4.4601,4.4603,4.463,4.4635,4.4654,4.4661,4.4669,4.4676,4.4698,4.471,4.4712,4.4719,4.4733,4.4745,4.4746,4.4751,4.4759,4.4758,4.4724,4.4719,4.4714,4.4709,4.476,4.476,4.4793,4.4794,4.4794]}]]